TimeCET,TemperatureF,Dew PointF,Humidity,Sea Level PressureIn,VisibilityMPH,Wind Direction,Wind SpeedMPH,Gust SpeedMPH,PrecipitationIn,Events,Conditions,WindDirDegrees,DateUTC
12:00 AM,34,33,97,30.09,0,South,2.2,,,Fog,Partial Fog,170,2014-01-03 23:00:00
12:00 AM,33.8,33.8,100,30.01,0.4,South,3.5,-,N/A,Fog,Fog,170,2014-01-03 23:00:00
1:00 AM,34,34,98,30.08,0,SE,4.5,,,Fog,Partial Fog,140,2014-01-04 00:00:00
1:00 AM,33.8,33.8,100,30.01,0.2,SE,4.6,-,N/A,Fog,Fog,140,2014-01-04 00:00:00
2:00 AM,33,33,99,30.12,0,SSE,4.5,,,Fog,Heavy Fog,150,2014-01-04 01:00:00
2:00 AM,33.8,33.8,100,30.04,0.1,SSE,3.5,-,N/A,Fog,Fog,150,2014-01-04 01:00:00
3:00 AM,33,32,96,30.12,0,SE,2.2,,,Fog,Heavy Fog,140,2014-01-04 02:00:00
3:00 AM,32.0,32.0,100,30.04,0.1,Variable,2.3,-,N/A,Fog,Fog,0,2014-01-04 02:00:00
4:00 AM,32,31,97,30.12,0,SSE,4.5,,,Fog,Heavy Fog,160,2014-01-04 03:00:00
4:00 AM,32.0,32.0,100,30.04,0.1,SSE,5.8,-,N/A,Fog,Light Freezing Fog,160,2014-01-04 03:00:00
5:00 AM,31,30,96,30.13,0,ESE,2.2,,,Fog,Heavy Fog,120,2014-01-04 04:00:00
5:00 AM,30.2,30.2,100,30.04,0.1,Variable,2.3,-,N/A,Fog,Light Freezing Fog,0,2014-01-04 04:00:00
6:00 AM,31,30,96,30.13,0,ENE,2.2,,,Fog,Heavy Fog,60,2014-01-04 05:00:00
6:00 AM,30.2,30.2,100,30.04,0.1,ENE,3.5,-,N/A,Fog,Light Freezing Fog,70,2014-01-04 05:00:00
7:00 AM,30,30,99,30.14,0,East,4.5,,,Fog,Heavy Fog,100,2014-01-04 06:00:00
7:00 AM,30.2,30.2,100,30.04,0.1,ESE,3.5,-,N/A,Fog,Light Freezing Fog,110,2014-01-04 06:00:00
8:00 AM,30,30,98,30.15,0,East,2.2,,,Fog,Heavy Fog,90,2014-01-04 07:00:00
8:00 AM,30.2,30.2,100,30.06,0.1,Variable,2.3,-,N/A,Fog,Light Freezing Fog,0,2014-01-04 07:00:00
9:00 AM,30,30,100,30.15,0,East,4.5,,,Fog,Heavy Fog,90,2014-01-04 08:00:00
9:00 AM,30.2,30.2,100,30.06,0.1,East,3.5,-,N/A,Fog,Light Freezing Fog,90,2014-01-04 08:00:00
10:00 AM,31,31,99,30.14,0,ESE,6.7,,,Fog,Heavy Fog,120,2014-01-04 09:00:00
10:00 AM,30.2,30.2,100,30.04,0.1,SE,5.8,-,N/A,Fog,Light Freezing Fog,130,2014-01-04 09:00:00
11:00 AM,32,32,99,30.12,0,ESE,6.7,,,Fog,Heavy Fog,110,2014-01-04 10:00:00
11:00 AM,32.0,32.0,100,30.04,0.1,ESE,6.9,-,N/A,Fog,Fog,110,2014-01-04 10:00:00
12:00 PM,33,33,99,30.09,0,ESE,8.9,,,Fog,Heavy Fog,110,2014-01-04 11:00:00
12:00 PM,33.8,33.8,100,30.01,0.1,ESE,9.2,-,N/A,Fog,Fog,110,2014-01-04 11:00:00
1:00 PM,34,34,100,30.04,0,East,8.9,,,Fog,Heavy Fog,100,2014-01-04 12:00:00
1:00 PM,33.8,33.8,100,29.98,0.1,East,8.1,-,N/A,Fog,Fog,100,2014-01-04 12:00:00
2:00 PM,36,35,96,29.99,0,ESE,11.2,,,Fog,Heavy Fog,120,2014-01-04 13:00:00
2:00 PM,35.6,35.6,100,29.92,0.1,ESE,12.7,-,N/A,Fog,Fog,110,2014-01-04 13:00:00
3:00 PM,37,36,97,29.96,0,ESE,11.2,,,Fog,Heavy Fog,110,2014-01-04 14:00:00
3:00 PM,37.4,37.4,100,29.89,0.0,ESE,11.5,-,N/A,Fog,Fog,110,2014-01-04 14:00:00
4:00 PM,38,37,96,29.92,0,ESE,13.4,,,Fog,Heavy Fog,120,2014-01-04 15:00:00
4:00 PM,37.4,37.4,100,29.86,0.0,ESE,12.7,-,N/A,Fog,Fog,120,2014-01-04 15:00:00
5:00 PM,38,38,100,29.86,0,ESE,20.1,,,Rain,Light Rain,110,2014-01-04 16:00:00
5:00 PM,37.4,37.4,100,29.80,0.5,ESE,21.9,-,N/A,Fog-Rain,Light Rain,110,2014-01-04 16:00:00
6:00 PM,38,38,100,29.84,1,SE,20.1,,,Rain,Light Rain,130,2014-01-04 17:00:00
6:00 PM,39.2,37.4,93,29.80,1.1,SE,19.6,-,N/A,Rain,Light Rain,130,2014-01-04 17:00:00
6:18 PM,39.2,37.4,93,29.77,0.5,ESE,19.6,-,N/A,Fog-Rain,Light Rain,120,2014-01-04 17:18:00
7:00 PM,39,38,97,29.80,0,SE,20.1,,,Fog,Heavy Fog,130,2014-01-04 18:00:00
7:00 PM,39.2,39.2,100,29.74,0.1,SE,19.6,-,N/A,Fog,Fog,130,2014-01-04 18:00:00
8:00 PM,39,39,100,29.76,0,SE,20.1,,,Fog,Heavy Fog,140,2014-01-04 19:00:00
8:00 PM,39.2,39.2,100,29.71,0.1,SE,19.6,-,N/A,Fog,Fog,130,2014-01-04 19:00:00
9:00 PM,42,41,97,29.73,1,SE,20.1,,,Fog,Heavy Fog,140,2014-01-04 20:00:00
9:00 PM,41.0,41.0,100,29.68,0.6,SE,20.7,-,N/A,Fog,Fog,140,2014-01-04 20:00:00
9:15 PM,42.8,42.8,100,29.68,1.1,SE,21.9,-,N/A,,Overcast,140,2014-01-04 20:15:00
10:00 PM,43,42,97,29.71,2,SE,20.1,,,Fog,Light Fog,140,2014-01-04 21:00:00
10:00 PM,42.8,42.8,100,29.68,1.9,SE,21.9,-,N/A,,Overcast,140,2014-01-04 21:00:00
10:30 PM,42.8,42.8,100,29.65,2.2,SE,20.7,-,N/A,,Overcast,140,2014-01-04 21:30:00
11:00 PM,43,43,100,29.69,2,SSE,20.1,,,Rain,Light Rain,150,2014-01-04 22:00:00
11:00 PM,42.8,42.8,100,29.65,2.5,SE,20.7,-,N/A,Rain,Light Rain,140,2014-01-04 22:00:00